Regional Weather Roundup
Issued by NWS Sioux Falls, SD

Home | Current Version | Previous Version | Text Only | Print | Product List | Glossary On
Versions: 1 2 3 4 5 6 7 8 9 10 11 12 13 14 15 16 17 18 19 20 21 22 23 24 25 26 27 28 29 30 31 32 33 34 35 36 37 38 39 40 41 42 43 44 45 46 47 48 49 50
000
ASUS43 KFSD 061010
RWRFSD

WEATHER ROUNDUP FOR SE SOUTH DAKOTA/SW MINNESOTA/NW IOWA
NATIONAL WEATHER SERVICE SIOUX FALLS SD
500 AM CDT WED JUL 06 2022

NOTE: "FAIR" INDICATES FEW OR NO CLOUDS BELOW 12,000 FEET WITH NO
SIGNIFICANT WEATHER AND OR OBSTRUCTIONS TO VISIBILITY.


SDZ038>040-050-052>070-061100-
SOUTHEAST SOUTH DAKOTA

CITY           SKY/WX    TMP DP  RH WIND       PRES   REMARKS
BROOKINGS      CLOUDY    71  70  96 CALM      29.99S
CHAMBERLAIN    MOCLDY    66  66 100 CALM      29.96S
HURON          CLOUDY    69  68  96 NE6       29.96F FOG
MADISON          N/A     70  70 100 E5        29.97F FOG
MITCHELL       CLOUDY    68  67  96 NE6       29.94F FOG
SIOUX FALLS    CLOUDY    72  69  90 E7        29.96S FOG
WINNER         PTCLDY    68  66  93 CALM      29.97F
YANKTON        CLOUDY    69  68  96 CALM      29.94S
$$

MNZ071-072-080-081-089-090-097-098-061100-
SOUTHWEST MINNESOTA

CITY           SKY/WX    TMP DP  RH WIND       PRES   REMARKS
JACKSON        CLOUDY    68  68 100 CALM      29.97S
LUVERNE        CLOUDY   N/A N/A N/A CALM      29.98R FOG
MARSHALL       CLOUDY    68  68 100 NE6       29.98S
MONTEVIDEO     MOCLDY    64  61  88 E6        29.98S
PIPESTONE      CLOUDY    72  70  94 CALM      29.98S FOG
REDWOOD FALLS  CLOUDY    67  64  90 NE5       29.96S
TRACY          CLOUDY    69  67  92 N5        29.97F FOG
WINDOM         CLOUDY    70  68  94 N6        29.96S FOG
WORTHINGTON    FOG       69  69 100 N3        29.98R VSB 1/2
$$

IAZ001>003-012>014-020>022-031-032-NEZ013-014-SDZ071-061100-
NORTHWEST IOWA

CITY           SKY/WX    TMP DP  RH WIND       PRES   REMARKS
CHEROKEE       CLOUDY    65  65 100 N3        29.94F
DENISON        CLOUDY    68  68 100 NE3       29.94R
ESTHERVILLE    FOG       70  69  97 CALM      29.95S VSB 1
LE MARS        CLOUDY   N/A N/A N/A NE3       29.92F
MAURICE        FAIR      66  66 100 NE7       29.92F
SHELDON        CLOUDY    64  64 100 N6        29.93F FOG
SIOUX CITY     CLOUDY    69  66  90 W3        29.94R
SPENCER        CLOUDY    65  62  90 N5        29.94F
STORM LAKE     CLOUDY    68  68 100 NE5       29.94F
$$

ABBREVIATIONS USED IN REMARKS
   TC - TEMPERATURE IN CELSIUS
  WCI - WIND CHILL INDEX
   HX - HEAT INDEX
  VSB - VISIBILITY




USA.gov is the U.S. government's official web portal to all federal, state and local government web resources and services.